Location: Champseau
(45.8333°N, 1.7667°E)
Time: 01:20:50
(UTC+00:00)

Envisat - Pass Details

Date: 02 October 2021
Orbit: 764 x 766 km, 98.2° (Epoch: 17 October)

Event Time Altitude Azimuth Distance (km) Brightness Sun altitude
Rises 04:36:11 0° 19° (NNE) 3,241 6.6 -14.1°
Reaches altitude 10° 04:38:36 10° 25° (NNE) 2,310 6.0 -13.7°
Maximum altitude 04:43:28 45° 98° (E) 1,037 4.2 -12.8°
Drops below altitude 10° 04:48:19 10° 171° (S) 2,294 5.5 -12.0°
Sets 04:50:42 0° 178° (S) 3,215 6.2 -11.6°
